St. Augustine, FL

6:00 PM EDT on April 27, 2017 (GMT -0400)
Saint Augustine

Weather History for KSGJ - April, 2013

Change the Weather History Date:

Tuesday, April 2, 2013

  Actual Average Record
Temperature  
Mean Temperature 64 °F -  
Max Temperature 71 °F 73 °F 90 °F (2012)
Min Temperature 57 °F 56 °F 37 °F (1987)
Degree Days  
Heating Degree Days 2    
Growing Degree Days 14 (Base 50)    
Moisture  
Dew Point 56 °F    
Average Humidity 73    
Maximum Humidity 93    
Minimum Humidity 49    
Precipitation  
Precipitation 0.00 in - - ()
Sea Level Pressure  
Sea Level Pressure 30.09 in    
Wind  
Wind Speed 8 mph (NE)    
Max Wind Speed 14 mph    
Max Gust Speed 21 mph    
Visibility 10 miles    
Events      
Averages and records for this station are not official NWS values.
T = Trace of Precipitation, MM = Missing Value Source: NWS Daily Summary

Daily Weather History Graph

Daily Weather History Graph

Search for Another Location

Airport or City:

Trip Planner

Search our weather history database for the weather conditions in past years. The results will help you decide how hot, cold, wet, or windy it might be!

Date:

Astronomy

Apr. 02, 2013 Rise Set
Actual Time 7:13 AM EDT 7:44 PM EDT
Civil Twilight 6:49 AM EDT 8:08 PM EDT
Nautical Twilight 6:20 AM EDT 8:37 PM EDT
Astronomical Twilight 5:52 AM EDT 9:05 PM EDT
Moon 1:30 AM EDT (4/2) 12:19 PM EDT (4/2)
Length of Visible Light 13h 19m
Length of Day
12h 31m
Waning Gibbous, 56% of the Moon is Illuminated
Apr 2
Waning Gibbous
Apr 3
Last Quarter
Apr 10
New
Apr 18
First Quarter
Apr 25
Full

Hourly Weather History & Observations

Time (EDT) Temp. Dew Point Humidity Pressure Visibility Wind Dir Wind Speed Gust Speed Precip Events Conditions
12:58 AM 64.9 °F 57.9 °F 78% 30.00 in 10.0 mi West 8.1 mph - N/A   Clear
1:58 AM 64.0 °F 57.9 °F 80% 30.01 in 10.0 mi WSW 8.1 mph - N/A   Clear
2:58 AM 63.0 °F 57.9 °F 84% 30.01 in 10.0 mi WSW 6.9 mph - N/A   Scattered Clouds
3:58 AM 62.1 °F 57.9 °F 86% 30.01 in 10.0 mi West 6.9 mph - N/A   Clear
4:58 AM 60.1 °F 57.0 °F 90% 30.03 in 10.0 mi Calm Calm - N/A   Clear
5:58 AM 59.0 °F 55.9 °F 90% 30.04 in 10.0 mi West 3.5 mph - N/A   Clear
6:58 AM 57.9 °F 55.9 °F 93% 30.06 in 10.0 mi NW 4.6 mph - N/A   Clear
7:58 AM 59.0 °F 54.0 °F 83% 30.09 in 10.0 mi NNW 4.6 mph - N/A   Clear
8:58 AM 66.0 °F 55.0 °F 68% 30.12 in 10.0 mi North 10.4 mph - N/A   Clear
9:58 AM 68.0 °F 54.0 °F 61% 30.13 in 10.0 mi NNE 13.8 mph - N/A   Clear
10:58 AM 69.1 °F 51.1 °F 53% 30.13 in 10.0 mi NNE 12.7 mph - N/A   Clear
11:58 AM 70.0 °F 50.0 °F 49% 30.14 in 10.0 mi NE 10.4 mph 20.7 mph N/A   Clear
12:58 PM 70.0 °F 50.0 °F 49% 30.14 in 10.0 mi NNE 8.1 mph - N/A   Clear
1:58 PM 69.1 °F 54.0 °F 58% 30.14 in 10.0 mi North 9.2 mph - N/A   Clear
2:58 PM 70.0 °F 55.9 °F 61% 30.11 in 10.0 mi NE 10.4 mph - N/A   Clear
3:58 PM 68.0 °F 55.9 °F 65% 30.10 in 10.0 mi ENE 9.2 mph - N/A   Clear
4:58 PM 69.1 °F 57.9 °F 68% 30.09 in 10.0 mi East 8.1 mph - N/A   Clear
5:58 PM 68.0 °F 59.0 °F 73% 30.10 in 10.0 mi ENE 6.9 mph - N/A   Clear
6:58 PM 66.9 °F 59.0 °F 76% 30.09 in 10.0 mi East 8.1 mph - N/A   Clear
8:58 PM 64.0 °F 59.0 °F 84% 30.09 in 10.0 mi ESE 8.1 mph - N/A   Clear
9:58 PM 64.0 °F 55.9 °F 75% 30.11 in 10.0 mi SE 8.1 mph - N/A   Clear
10:58 PM 64.0 °F 55.9 °F 75% 30.11 in 10.0 mi SE 8.1 mph - N/A   Clear
11:58 PM 64.0 °F 57.9 °F 80% 30.12 in 10.0 mi SE 8.1 mph - N/A   Clear